Location: *
(58.4167°N, 22.5000°E)
Time: 15:00:09
(UTC+00:00)

Cosmos 1271 Rocket - Pass Details

Date: 22 September 2019
Orbit: 499 x 546 km, 81.2° (Epoch: 16 October)

Event Time Altitude Azimuth Distance (km) Brightness Sun altitude
Rises 19:01:35 0° 346° (NNW) 2,613 7.0 -19.4°
Reaches altitude 10° 19:03:46 10° 353° (N) 1,727 5.9 -19.6°
Enters shadow 19:07:23 46° 66° (ENE) 692 3.1 -20.0°
